Time,TemperatureF,DewpointF,PressureIn,WindDirection,WindDirectionDegrees,WindSpeedMPH,WindSpeedGustMPH,Humidity,HourlyPrecipIn,Conditions,Clouds,dailyrainin,SoftwareType,DateUTC
2013-02-04 00:03:00,4.0,-4.0,29.96,WSW,244,1.0,10.0,69,0.00,,,0.00,,2013-02-04 05:03:00,
2013-02-04 00:11:00,4.0,-4.0,29.96,WSW,244,1.0,10.0,69,0.00,,,0.00,,2013-02-04 05:11:00,
2013-02-04 00:22:00,4.0,-4.0,29.96,SW,225,0.0,8.0,70,0.00,,,0.00,,2013-02-04 05:22:00,
2013-02-04 00:33:00,5.0,-2.0,29.96,WSW,251,1.0,8.0,71,0.00,,,0.00,,2013-02-04 05:33:00,
2013-02-04 00:42:00,5.0,-2.0,29.96,WSW,251,1.0,8.0,71,0.00,,,0.00,,2013-02-04 05:42:00,
2013-02-04 00:52:00,5.0,-3.0,29.96,West,261,1.0,11.0,70,0.00,,,0.00,,2013-02-04 05:52:00,
2013-02-04 01:02:00,5.0,-2.0,29.97,SW,235,0.0,8.0,71,0.00,,,0.00,,2013-02-04 06:02:00,
2013-02-04 01:11:00,5.0,-2.0,29.97,SW,235,0.0,8.0,71,0.00,,,0.00,,2013-02-04 06:11:00,
2013-02-04 01:21:00,5.0,-3.0,29.98,WNW,284,0.0,10.0,70,0.00,,,0.00,,2013-02-04 06:21:00,
2013-02-04 01:32:00,5.0,-3.0,29.98,West,270,2.0,6.0,69,0.00,,,0.00,,2013-02-04 06:32:00,
2013-02-04 01:42:00,5.0,-3.0,29.98,West,270,2.0,6.0,69,0.00,,,0.00,,2013-02-04 06:42:00,
2013-02-04 01:51:00,6.0,-2.0,29.98,West,273,2.0,9.0,68,0.00,,,0.00,,2013-02-04 06:51:00,
2013-02-04 02:02:00,5.0,-3.0,29.98,WSW,242,1.0,7.0,68,0.00,,,0.00,,2013-02-04 07:02:00,
2013-02-04 02:11:00,5.0,-3.0,29.98,WSW,242,1.0,7.0,68,0.00,,,0.00,,2013-02-04 07:11:00,
2013-02-04 02:21:00,5.0,-3.0,29.98,WSW,251,1.0,5.0,69,0.00,,,0.00,,2013-02-04 07:21:00,
2013-02-04 02:32:00,4.0,-4.0,29.98,West,261,2.0,8.0,69,0.00,,,0.00,,2013-02-04 07:32:00,
2013-02-04 02:42:00,4.0,-4.0,29.98,West,261,2.0,8.0,69,0.00,,,0.00,,2013-02-04 07:42:00,
2013-02-04 02:52:00,4.0,-4.0,29.99,WSW,240,2.0,9.0,69,0.00,,,0.00,,2013-02-04 07:52:00,
2013-02-04 03:01:00,4.0,-4.0,29.99,WSW,242,0.0,7.0,69,0.00,,,0.00,,2013-02-04 08:01:00,
2013-02-04 03:11:00,4.0,-4.0,29.99,WSW,242,0.0,7.0,69,0.00,,,0.00,,2013-02-04 08:11:00,
2013-02-04 03:21:00,3.0,-5.0,29.99,West,278,1.0,10.0,70,0.00,,,0.00,,2013-02-04 08:21:00,
2013-02-04 03:31:00,3.0,-5.0,29.99,WSW,247,2.0,8.0,69,0.00,,,0.00,,2013-02-04 08:31:00,
2013-02-04 03:42:00,3.0,-5.0,29.99,WSW,247,2.0,8.0,69,0.00,,,0.00,,2013-02-04 08:42:00,
2013-02-04 03:52:00,3.0,-5.0,29.99,West,263,1.0,7.0,69,0.00,,,0.00,,2013-02-04 08:52:00,
2013-02-04 04:02:00,3.0,-5.0,29.99,WSW,258,1.0,4.0,69,0.00,,,0.00,,2013-02-04 09:02:00,
2013-02-04 04:11:00,3.0,-5.0,29.99,WSW,258,1.0,4.0,69,0.00,,,0.00,,2013-02-04 09:11:00,
2013-02-04 04:21:00,3.0,-5.0,29.99,WSW,252,1.0,6.0,69,0.00,,,0.00,,2013-02-04 09:21:00,
2013-02-04 04:32:00,2.0,-6.0,29.99,West,266,1.0,6.0,70,0.00,,,0.00,,2013-02-04 09:32:00,
2013-02-04 04:42:00,2.0,-6.0,29.99,West,266,1.0,6.0,70,0.00,,,0.00,,2013-02-04 09:42:00,
2013-02-04 04:51:00,3.0,-5.0,29.98,West,265,1.0,5.0,69,0.00,,,0.00,,2013-02-04 09:51:00,
2013-02-04 05:01:00,3.0,-5.0,29.98,West,259,1.0,6.0,68,0.00,,,0.00,,2013-02-04 10:01:00,
2013-02-04 05:11:00,3.0,-5.0,29.98,West,259,1.0,6.0,68,0.00,,,0.00,,2013-02-04 10:11:00,
2013-02-04 05:21:00,3.0,-5.0,29.98,WSW,252,2.0,6.0,68,0.00,,,0.00,,2013-02-04 10:21:00,
2013-02-04 05:32:00,3.0,-5.0,29.98,WSW,257,2.0,7.0,68,0.00,,,0.00,,2013-02-04 10:32:00,
2013-02-04 05:41:00,3.0,-5.0,29.98,WSW,257,2.0,7.0,68,0.00,,,0.00,,2013-02-04 10:41:00,
2013-02-04 05:51:00,3.0,-5.0,29.98,West,275,1.0,7.0,68,0.00,,,0.00,,2013-02-04 10:51:00,
2013-02-04 06:02:00,3.0,-5.0,29.98,WSW,248,1.0,10.0,68,0.00,,,0.00,,2013-02-04 11:02:00,
2013-02-04 06:11:00,3.0,-5.0,29.98,WSW,248,1.0,10.0,68,0.00,,,0.00,,2013-02-04 11:11:00,
2013-02-04 06:22:00,3.0,-5.0,29.98,West,277,2.0,8.0,67,0.00,,,0.00,,2013-02-04 11:22:00,
2013-02-04 06:32:00,2.0,-6.0,29.98,West,270,2.0,8.0,68,0.00,,,0.00,,2013-02-04 11:32:00,
2013-02-04 06:42:00,2.0,-6.0,29.98,West,270,2.0,8.0,68,0.00,,,0.00,,2013-02-04 11:42:00,
2013-02-04 06:52:00,2.0,-6.0,29.98,WSW,248,1.0,7.0,67,0.00,,,0.00,,2013-02-04 11:52:00,
2013-02-04 07:02:00,2.0,-6.0,29.98,West,264,2.0,8.0,67,0.00,,,0.00,,2013-02-04 12:02:00,
2013-02-04 07:12:00,2.0,-6.0,29.98,West,264,2.0,8.0,67,0.00,,,0.00,,2013-02-04 12:12:00,
2013-02-04 07:22:00,3.0,-5.0,29.98,West,263,3.0,9.0,67,0.00,,,0.00,,2013-02-04 12:22:00,
2013-02-04 07:32:00,2.0,-6.0,29.98,SW,234,2.0,10.0,67,0.00,,,0.00,,2013-02-04 12:32:00,
2013-02-04 07:42:00,2.0,-6.0,29.98,SW,234,2.0,10.0,67,0.00,,,0.00,,2013-02-04 12:42:00,
2013-02-04 07:52:00,2.0,-6.0,29.98,WSW,241,1.0,6.0,68,0.00,,,0.00,,2013-02-04 12:52:00,
2013-02-04 08:02:00,2.0,-6.0,29.99,WSW,248,1.0,12.0,68,0.00,,,0.00,,2013-02-04 13:02:00,
2013-02-04 08:12:00,2.0,-6.0,29.99,WSW,252,1.0,9.0,68,0.00,,,0.00,,2013-02-04 13:12:00,
2013-02-04 08:21:00,2.0,-6.0,29.99,WSW,252,1.0,9.0,68,0.00,,,0.00,,2013-02-04 13:21:00,
2013-02-04 08:33:00,2.0,-6.0,29.99,WSW,256,0.0,9.0,67,0.00,,,0.00,,2013-02-04 13:33:00,
2013-02-04 08:42:00,2.0,-6.0,29.99,WSW,256,0.0,9.0,67,0.00,,,0.00,,2013-02-04 13:42:00,
2013-02-04 08:51:00,2.0,-6.0,29.99,West,273,1.0,7.0,67,0.00,,,0.00,,2013-02-04 13:51:00,
2013-02-04 09:03:00,2.0,-6.0,29.99,WSW,257,3.0,10.0,68,0.00,,,0.00,,2013-02-04 14:03:00,
2013-02-04 09:12:00,2.0,-6.0,29.99,WSW,257,3.0,10.0,68,0.00,,,0.00,,2013-02-04 14:12:00,
2013-02-04 09:22:00,3.0,-5.0,30.00,WNW,282,3.0,9.0,67,0.00,,,0.00,,2013-02-04 14:22:00,
2013-02-04 09:32:00,4.0,-5.0,29.99,West,261,1.0,7.0,64,0.00,,,0.00,,2013-02-04 14:32:00,
2013-02-04 09:42:00,4.0,-5.0,29.99,West,261,1.0,7.0,64,0.00,,,0.00,,2013-02-04 14:42:00,
2013-02-04 09:52:00,6.0,-5.0,29.99,West,273,0.0,10.0,60,0.00,,,0.00,,2013-02-04 14:52:00,
2013-02-04 10:03:00,7.0,-5.0,29.99,West,270,1.0,9.0,58,0.00,,,0.00,,2013-02-04 15:03:00,
2013-02-04 10:12:00,7.0,-5.0,29.99,West,270,1.0,9.0,58,0.00,,,0.00,,2013-02-04 15:12:00,
2013-02-04 10:23:00,8.0,-4.0,29.99,West,269,2.0,9.0,57,0.00,,,0.00,,2013-02-04 15:23:00,
2013-02-04 10:33:00,8.0,-4.0,29.99,WSW,246,2.0,11.0,56,0.00,,,0.00,,2013-02-04 15:33:00,
2013-02-04 10:43:00,8.0,-4.0,29.99,WSW,246,2.0,11.0,56,0.00,,,0.00,,2013-02-04 15:43:00,
2013-02-04 10:52:00,10.0,-3.0,29.99,West,269,2.0,7.0,54,0.00,,,0.00,,2013-02-04 15:52:00,
2013-02-04 11:03:00,10.0,-3.0,30.00,WNW,297,2.0,7.0,55,0.00,,,0.00,,2013-02-04 16:03:00,
2013-02-04 11:11:00,10.0,-3.0,30.00,WNW,297,2.0,7.0,55,0.00,,,0.00,,2013-02-04 16:11:00,
2013-02-04 11:22:00,12.0,-2.0,30.00,SW,218,3.0,8.0,53,0.00,,,0.00,,2013-02-04 16:22:00,
2013-02-04 11:33:00,12.0,-2.0,30.00,WNW,282,2.0,12.0,52,0.00,,,0.00,,2013-02-04 16:33:00,
2013-02-04 11:42:00,12.0,-2.0,30.00,WNW,282,2.0,12.0,52,0.00,,,0.00,,2013-02-04 16:42:00,
2013-02-04 11:51:00,13.0,-1.0,30.00,West,259,0.0,10.0,52,0.00,,,0.00,,2013-02-04 16:51:00,
2013-02-04 12:02:00,13.0,-2.0,29.99,WSW,242,0.0,10.0,50,0.00,,,0.00,,2013-02-04 17:02:00,
2013-02-04 12:11:00,13.0,-2.0,29.99,WSW,242,0.0,10.0,50,0.00,,,0.00,,2013-02-04 17:11:00,
2013-02-04 12:21:00,14.0,-2.0,29.99,West,261,0.0,11.0,48,0.00,,,0.00,,2013-02-04 17:21:00,
2013-02-04 12:32:00,14.0,-2.0,29.99,WNW,301,1.0,7.0,48,0.00,,,0.00,,2013-02-04 17:32:00,
2013-02-04 12:42:00,14.0,-2.0,29.99,WNW,301,1.0,7.0,48,0.00,,,0.00,,2013-02-04 17:42:00,
2013-02-04 12:51:00,14.0,-1.0,29.99,West,281,1.0,8.0,50,0.00,,,0.00,,2013-02-04 17:51:00,
2013-02-04 13:03:00,12.0,-3.0,29.99,NW,305,3.0,10.0,49,0.00,,,0.00,,2013-02-04 18:03:00,
2013-02-04 13:11:00,12.0,-3.0,29.99,NW,305,3.0,10.0,49,0.00,,,0.00,,2013-02-04 18:11:00,
2013-02-04 13:22:00,11.0,-3.0,29.99,WNW,296,1.0,10.0,52,0.00,,,0.00,,2013-02-04 18:22:00,
2013-02-04 13:32:00,12.0,-3.0,29.98,West,273,1.0,8.0,49,0.00,,,0.00,,2013-02-04 18:32:00,
2013-02-04 13:42:00,12.0,-3.0,29.98,West,273,1.0,8.0,49,0.00,,,0.00,,2013-02-04 18:42:00,
2013-02-04 13:52:00,14.0,-2.0,29.97,NNE,14,2.0,7.0,49,0.00,,,0.00,,2013-02-04 18:52:00,
2013-02-04 14:02:00,14.0,-2.0,29.97,WNW,294,1.0,6.0,47,0.00,,,0.00,,2013-02-04 19:02:00,
2013-02-04 14:11:00,14.0,-2.0,29.97,WNW,294,1.0,6.0,47,0.00,,,0.00,,2013-02-04 19:11:00,
2013-02-04 14:22:00,14.0,-2.0,29.97,WNW,294,1.0,6.0,47,0.00,,,0.00,,2013-02-04 19:22:00,
2013-02-04 14:32:00,13.0,-4.0,29.96,NE,46,1.0,7.0,45,0.00,,,0.00,,2013-02-04 19:32:00,
2013-02-04 14:42:00,13.0,-4.0,29.96,NE,46,1.0,7.0,45,0.00,,,0.00,,2013-02-04 19:42:00,
2013-02-04 14:52:00,13.0,-3.0,29.95,WNW,287,1.0,9.0,47,0.00,,,0.00,,2013-02-04 19:52:00,
2013-02-04 15:02:00,13.0,-3.0,29.94,NNE,29,2.0,7.0,47,0.00,,,0.00,,2013-02-04 20:02:00,
2013-02-04 15:12:00,13.0,-3.0,29.94,NNE,29,2.0,7.0,47,0.00,,,0.00,,2013-02-04 20:12:00,
2013-02-04 15:22:00,13.0,-3.0,29.94,West,269,1.0,13.0,47,0.00,,,0.00,,2013-02-04 20:22:00,
2013-02-04 15:32:00,14.0,-2.0,29.93,North,360,1.0,4.0,48,0.00,,,0.00,,2013-02-04 20:32:00,
2013-02-04 15:42:00,14.0,-2.0,29.93,North,360,1.0,4.0,48,0.00,,,0.00,,2013-02-04 20:42:00,
2013-02-04 15:52:00,14.0,-3.0,29.93,West,279,0.0,5.0,46,0.00,,,0.00,,2013-02-04 20:52:00,
2013-02-04 16:02:00,14.0,-2.0,29.93,North,360,1.0,9.0,47,0.00,,,0.00,,2013-02-04 21:02:00,
2013-02-04 16:11:00,14.0,-2.0,29.93,North,360,1.0,9.0,47,0.00,,,0.00,,2013-02-04 21:11:00,
2013-02-04 16:22:00,14.0,-2.0,29.93,NNE,16,0.0,4.0,47,0.00,,,0.00,,2013-02-04 21:22:00,
2013-02-04 16:32:00,14.0,-3.0,29.93,NNW,327,0.0,5.0,46,0.00,,,0.00,,2013-02-04 21:32:00,
2013-02-04 16:42:00,14.0,-3.0,29.93,NNW,327,0.0,5.0,46,0.00,,,0.00,,2013-02-04 21:42:00,
2013-02-04 16:52:00,14.0,-3.0,29.93,NNW,327,0.0,5.0,46,0.00,,,0.00,,2013-02-04 21:52:00,
2013-02-04 17:02:00,14.0,-2.0,29.92,WSW,247,0.0,4.0,48,0.00,,,0.00,,2013-02-04 22:02:00,
2013-02-04 17:12:00,14.0,-2.0,29.92,WSW,247,0.0,4.0,48,0.00,,,0.00,,2013-02-04 22:12:00,
2013-02-04 17:21:00,14.0,-2.0,29.92,West,268,1.0,4.0,48,0.00,,,0.00,,2013-02-04 22:21:00,
2013-02-04 17:32:00,13.0,-3.0,29.92,WSW,244,0.0,5.0,49,0.00,,,0.00,,2013-02-04 22:32:00,
2013-02-04 17:42:00,13.0,-3.0,29.92,WSW,244,0.0,5.0,49,0.00,,,0.00,,2013-02-04 22:42:00,
2013-02-04 17:51:00,13.0,-2.0,29.92,WSW,246,0.0,3.0,50,0.00,,,0.00,,2013-02-04 22:51:00,
2013-02-04 18:01:00,12.0,-2.0,29.93,WSW,252,0.0,5.0,52,0.00,,,0.00,,2013-02-04 23:01:00,
2013-02-04 18:11:00,12.0,-2.0,29.93,WSW,252,0.0,5.0,52,0.00,,,0.00,,2013-02-04 23:11:00,
2013-02-04 18:21:00,12.0,-2.0,29.93,WSW,252,0.0,3.0,53,0.00,,,0.00,,2013-02-04 23:21:00,
2013-02-04 18:32:00,11.0,-2.0,29.93,WSW,252,0.0,2.0,56,0.00,,,0.00,,2013-02-04 23:32:00,
2013-02-04 18:42:00,11.0,-2.0,29.93,WSW,252,0.0,2.0,56,0.00,,,0.00,,2013-02-04 23:42:00,
2013-02-04 18:52:00,11.0,-1.0,29.93,WSW,252,0.0,3.0,57,0.00,,,0.00,,2013-02-04 23:52:00,
2013-02-04 19:01:00,10.0,-2.0,29.93,WSW,252,0.0,3.0,57,0.00,,,0.00,,2013-02-05 00:01:00,
2013-02-04 19:11:00,10.0,-2.0,29.93,WSW,252,0.0,3.0,57,0.00,,,0.00,,2013-02-05 00:11:00,
2013-02-04 19:22:00,10.0,-1.0,29.93,WSW,252,0.0,2.0,59,0.00,,,0.00,,2013-02-05 00:22:00,
2013-02-04 19:32:00,9.0,-2.0,29.94,WSW,252,0.0,2.0,61,0.00,,,0.00,,2013-02-05 00:32:00,
2013-02-04 19:42:00,9.0,-2.0,29.94,WSW,252,0.0,2.0,61,0.00,,,0.00,,2013-02-05 00:42:00,
2013-02-04 19:51:00,8.0,-2.0,29.93,WSW,252,0.0,0.0,63,0.00,,,0.00,,2013-02-05 00:51:00,
2013-02-04 20:02:00,8.0,-2.0,29.93,WSW,252,0.0,1.0,63,0.00,,,0.00,,2013-02-05 01:02:00,
2013-02-04 20:11:00,8.0,-2.0,29.93,WSW,252,0.0,1.0,63,0.00,,,0.00,,2013-02-05 01:11:00,
2013-02-04 20:22:00,8.0,-2.0,29.92,WSW,252,0.0,1.0,63,0.00,,,0.00,,2013-02-05 01:22:00,
2013-02-04 20:32:00,8.0,-2.0,29.92,WSW,252,0.0,1.0,63,0.00,,,0.00,,2013-02-05 01:32:00,
2013-02-04 20:42:00,8.0,-2.0,29.92,WSW,252,0.0,1.0,63,0.00,,,0.00,,2013-02-05 01:42:00,
2013-02-04 20:52:00,8.0,-2.0,29.91,WSW,252,0.0,1.0,63,0.00,,,0.00,,2013-02-05 01:52:00,
2013-02-04 21:01:00,8.0,-2.0,29.91,WSW,252,0.0,1.0,63,0.00,,,0.00,,2013-02-05 02:01:00,
2013-02-04 21:11:00,8.0,-2.0,29.91,WSW,252,0.0,1.0,63,0.00,,,0.00,,2013-02-05 02:11:00,
2013-02-04 21:22:00,7.0,-3.0,29.91,WSW,252,0.0,1.0,64,0.00,,,0.00,,2013-02-05 02:22:00,
2013-02-04 21:32:00,7.0,-3.0,29.91,WSW,252,0.0,2.0,64,0.00,,,0.00,,2013-02-05 02:32:00,
2013-02-04 21:42:00,7.0,-3.0,29.91,WSW,252,0.0,2.0,64,0.00,,,0.00,,2013-02-05 02:42:00,
2013-02-04 21:52:00,7.0,-3.0,29.91,WSW,251,0.0,2.0,64,0.00,,,0.00,,2013-02-05 02:52:00,
2013-02-04 22:02:00,6.0,-3.0,29.91,WSW,251,0.0,1.0,66,0.00,,,0.00,,2013-02-05 03:02:00,
2013-02-04 22:11:00,6.0,-3.0,29.91,WSW,251,0.0,1.0,66,0.00,,,0.00,,2013-02-05 03:11:00,
2013-02-04 22:21:00,6.0,-3.0,29.91,WSW,251,0.0,1.0,66,0.00,,,0.00,,2013-02-05 03:21:00,
2013-02-04 22:32:00,6.0,-3.0,29.90,WSW,251,0.0,1.0,66,0.00,,,0.00,,2013-02-05 03:32:00,
2013-02-04 22:42:00,6.0,-3.0,29.90,WSW,251,0.0,1.0,66,0.00,,,0.00,,2013-02-05 03:42:00,
2013-02-04 22:51:00,6.0,-3.0,29.89,WSW,251,0.0,1.0,67,0.00,,,0.00,,2013-02-05 03:51:00,
2013-02-04 23:01:00,6.0,-2.0,29.88,WSW,251,0.0,1.0,68,0.00,,,0.00,,2013-02-05 04:01:00,
2013-02-04 23:11:00,6.0,-2.0,29.88,WSW,251,0.0,1.0,68,0.00,,,0.00,,2013-02-05 04:11:00,
2013-02-04 23:21:00,5.0,-3.0,29.89,WSW,251,0.0,2.0,68,0.00,,,0.00,,2013-02-05 04:21:00,
2013-02-04 23:32:00,5.0,-3.0,29.89,WSW,251,0.0,3.0,68,0.00,,,0.00,,2013-02-05 04:32:00,
2013-02-04 23:42:00,5.0,-3.0,29.89,WSW,251,0.0,3.0,68,0.00,,,0.00,,2013-02-05 04:42:00,
2013-02-04 23:52:00,5.0,-3.0,29.90,WSW,251,0.0,2.0,68,0.00,,,0.00,,2013-02-05 04:52:00,